Regional Weather Roundup
Issued by NWS

Home | Current Version | Previous Version | Text Only | Print | Product List | Glossary On
Versions: 1 2 3 4 5 6 7 8 9 10 11 12 13 14 15 16 17 18 19 20 21 22 23 24 25 26 27 28 29 30 31 32 33 34 35 36 37 38 39 40 41 42 43 44 45 46 47 48 49 50
000
ASUS45 KBOI 060010
RWRID
WEATHER ROUNDUP FOR IDAHO
NATIONAL WEATHER SERVICE BOISE ID
500 PM MST THU MAR 05 2015

NOTE: "FAIR" INDICATES FEW OR NO CLOUDS BELOW 12000 FEET
WITH NO SIGNIFICANT WEATHER AND/OR OBSTRUCTIONS TO VISIBILITY

IDZ012-014-060100-
SOUTHWEST IDAHO


CITY           SKY/WX    TMP DP  RH WIND       PRES   REMARKS
BOISE          SUNNY     55  18  23 CALM      30.34S
CALDWELL       SUNNY     55  19  24 NE5       30.35F
MOUNTAIN HOME  SUNNY     55  17  22 VRB1      30.34S
$$

IDZ016-017-060100-
SOUTHCENTRAL IDAHO


CITY           SKY/WX    TMP DP  RH WIND       PRES   REMARKS
BURLEY         SUNNY     53  11  18 W9        30.32F
JEROME         SUNNY     52  12  20 SW14G21   30.34S
TWIN FALLS     SUNNY     54  14  20 NW5       30.34S
$$

IDZ019>023-060100-
SOUTHEAST IDAHO


CITY           SKY/WX    TMP DP  RH WIND       PRES   REMARKS
IDAHO FALLS    PTSUNNY   44  14  29 SW10      30.34S
POCATELLO      SUNNY     48  15  26 SW12      30.34F
REXBURG        PTSUNNY   40  20  44 SW8       30.34S WCI  34
$$

IDZ006-010-011-018-031-032-060100-
CENTRAL IDAHO MOUNTAINS


CITY           SKY/WX    TMP DP  RH WIND       PRES   REMARKS
MCCALL         MOSUNNY   46  16  30 W6        30.30S
HAILEY         MOSUNNY   45  19  36 E7        30.33S
STANLEY          N/A     46   7  20 CALM      30.31S
SALMON         MOSUNNY   46  10  23 CALM      30.26S
CHALLIS        SUNNY     53   6  15 CALM      30.23S
$$

IDZ002-004-006-007-026-060100-
NORTHERN IDAHO


CITY           SKY/WX    TMP DP  RH WIND       PRES   REMARKS
LEWISTON       MOSUNNY   53  27  36 SW3       30.32R
LOWELL           N/A     46  30  53 CALM      30.31R
COEUR D`ALENE  MOSUNNY   50  21  32 CALM      30.27S
MULLAN PASS    MOSUNNY   36  13  38 VRB3      30.24S
$$


USA.gov is the U.S. government's official web portal to all federal, state and local government web resources and services.